GLD965 SBRF-SBGR

Flight info

Callsign GLD965
Flight time N/A
Altitude 32000
Route UDOSA UZ21 KORKA/N0453F340 UZ21 VUNOX
Aircraft B738/M-SDE2E3FGHIRWXY/LB1

Departure

Time N/A
Airport Recife/Guararapes - Gilberto Freyre International Airport (SBRF)

Arrival

Time 2026-05-08 01:52
Airport São Paulo/Guarulhos–Governor André Franco Montoro International Airport (SBGR)
Time Latitude Longitude Altitude Speed Heading
2026-05-08 01:30 -21.96753 -45.90373 32139 ft 446 kts 220°
2026-05-08 01:31 -21.99158 -45.92491 32141 ft 446 kts 220°
2026-05-08 01:31 -22.01575 -45.94620 31454 ft 453 kts 220°
2026-05-08 01:31 -22.03992 -45.96750 30783 ft 444 kts 220°
2026-05-08 01:31 -22.06369 -45.98845 29966 ft 438 kts 220°
2026-05-08 01:32 -22.08688 -46.00891 29133 ft 432 kts 220°
2026-05-08 01:32 -22.11000 -46.02931 28292 ft 427 kts 220°
2026-05-08 01:32 -22.13286 -46.04949 27473 ft 422 kts 220°
2026-05-08 01:32 -22.15563 -46.06961 26657 ft 427 kts 220°
2026-05-08 01:33 -22.17906 -46.09033 25844 ft 444 kts 220°
2026-05-08 01:33 -22.20327 -46.11175 25176 ft 455 kts 220°
2026-05-08 01:33 -22.22804 -46.13366 24504 ft 464 kts 220°
2026-05-08 01:33 -22.25280 -46.15555 23809 ft 455 kts 220°
2026-05-08 01:34 -22.27693 -46.17690 23051 ft 442 kts 220°
2026-05-08 01:34 -22.30043 -46.19760 22388 ft 430 kts 219°
2026-05-08 01:34 -22.32606 -46.21355 21761 ft 422 kts 199°
2026-05-08 01:34 -22.35444 -46.22010 21334 ft 422 kts 188°
2026-05-08 01:35 -22.38404 -46.22414 20833 ft 434 kts 188°
2026-05-08 01:35 -22.41443 -46.22837 20293 ft 446 kts 188°
2026-05-08 01:35 -22.44543 -46.23295 19730 ft 449 kts 188°
2026-05-08 01:35 -22.47631 -46.23771 19199 ft 448 kts 188°
2026-05-08 01:36 -22.50675 -46.24246 18660 ft 447 kts 188°
2026-05-08 01:36 -22.53753 -46.24727 18086 ft 446 kts 188°
2026-05-08 01:36 -22.56799 -46.25200 17647 ft 440 kts 188°
2026-05-08 01:36 -22.59863 -46.25675 17269 ft 439 kts 188°
2026-05-08 01:37 -22.62875 -46.26143 16877 ft 436 kts 188°
2026-05-08 01:37 -22.65839 -46.26604 16506 ft 435 kts 188°
2026-05-08 01:37 -22.68829 -46.27069 16135 ft 433 kts 188°
2026-05-08 01:37 -22.71810 -46.27533 15756 ft 431 kts 189°
2026-05-08 01:38 -22.74769 -46.27994 15392 ft 428 kts 189°
2026-05-08 01:38 -22.77706 -46.28495 15034 ft 427 kts 194°
2026-05-08 01:38 -22.80420 -46.29712 14660 ft 421 kts 213°
2026-05-08 01:38 -22.82911 -46.31382 14293 ft 420 kts 212°
2026-05-08 01:39 -22.85425 -46.32985 13940 ft 418 kts 212°
2026-05-08 01:39 -22.87942 -46.34551 13530 ft 415 kts 211°
2026-05-08 01:39 -22.90412 -46.36071 13086 ft 400 kts 211°
2026-05-08 01:39 -22.92786 -46.37530 12626 ft 384 kts 212°
2026-05-08 01:40 -22.95062 -46.38934 12217 ft 370 kts 212°
2026-05-08 01:40 -22.97263 -46.40296 11795 ft 358 kts 212°
2026-05-08 01:40 -22.99370 -46.41604 11386 ft 348 kts 212°
2026-05-08 01:40 -23.01443 -46.42891 10976 ft 339 kts 213°
2026-05-08 01:41 -23.03465 -46.44148 10595 ft 331 kts 213°
2026-05-08 01:41 -23.05442 -46.45379 10294 ft 321 kts 213°
2026-05-08 01:41 -23.07326 -46.46549 10231 ft 302 kts 213°
2026-05-08 01:41 -23.09126 -46.47669 9898 ft 297 kts 213°
2026-05-08 01:42 -23.10901 -46.48775 9522 ft 292 kts 214°
2026-05-08 01:42 -23.12632 -46.49854 9210 ft 281 kts 214°
2026-05-08 01:42 -23.13744 -46.50548 8971 ft 274 kts 214°
2026-05-08 01:42 -23.15374 -46.51563 8608 ft 266 kts 214°
2026-05-08 01:43 -23.16959 -46.52550 8262 ft 259 kts 214°
2026-05-08 01:43 -23.18503 -46.53511 7924 ft 251 kts 214°
2026-05-08 01:43 -23.20005 -46.54447 7907 ft 248 kts 214°
2026-05-08 01:43 -23.21500 -46.55414 7655 ft 249 kts 218°
2026-05-08 01:44 -23.22922 -46.56423 7436 ft 246 kts 218°
2026-05-08 01:44 -23.24354 -46.57452 7174 ft 247 kts 218°
2026-05-08 01:44 -23.25785 -46.58473 6911 ft 245 kts 218°
2026-05-08 01:44 -23.27223 -46.59491 6672 ft 247 kts 218°
2026-05-08 01:45 -23.28651 -46.60506 6398 ft 243 kts 218°
2026-05-08 01:45 -23.29936 -46.61422 6170 ft 249 kts 218°
2026-05-08 01:45 -23.31415 -46.62478 6009 ft 253 kts 218°
2026-05-08 01:45 -23.32867 -46.63508 5946 ft 245 kts 218°
2026-05-08 01:46 -23.34283 -46.64513 5961 ft 247 kts 218°
2026-05-08 01:46 -23.35733 -46.65545 5964 ft 248 kts 218°
2026-05-08 01:46 -23.37143 -46.66546 5959 ft 243 kts 218°
2026-05-08 01:46 -23.38552 -46.67548 5948 ft 240 kts 218°
2026-05-08 01:47 -23.39944 -46.68539 5942 ft 239 kts 218°
2026-05-08 01:47 -23.41330 -46.69524 5982 ft 237 kts 218°
2026-05-08 01:47 -23.42848 -46.70315 5829 ft 251 kts 193°
2026-05-08 01:48 -23.46280 -46.69726 5508 ft 252 kts 160°
2026-05-08 01:48 -23.47679 -46.68649 5272 ft 243 kts 123°
2026-05-08 01:48 -23.48336 -46.67062 5109 ft 221 kts 96°
2026-05-08 01:48 -23.48365 -46.65465 4890 ft 203 kts 72°
2026-05-08 01:49 -23.48034 -46.64013 4647 ft 194 kts 66°
2026-05-08 01:49 -23.47650 -46.62613 4279 ft 193 kts 68°
2026-05-08 01:49 -23.47268 -46.61220 4035 ft 187 kts 68°
2026-05-08 01:49 -23.46901 -46.59864 3968 ft 183 kts 68°
2026-05-08 01:50 -23.46555 -46.58586 3965 ft 173 kts 67°
2026-05-08 01:50 -23.46225 -46.57365 3939 ft 160 kts 66°
2026-05-08 01:50 -23.45906 -46.56195 3843 ft 164 kts 68°
2026-05-08 01:50 -23.45581 -46.55001 3660 ft 165 kts 69°
2026-05-08 01:51 -23.45254 -46.53786 3475 ft 168 kts 69°
2026-05-08 01:51 -23.44928 -46.52583 3241 ft 169 kts 71°
2026-05-08 01:51 -23.44601 -46.51371 2996 ft 168 kts 73°
2026-05-08 01:51 -23.44292 -46.50162 2806 ft 164 kts 72°
2026-05-08 01:52 -23.43965 -46.48966 2527 ft 162 kts 70°
2026-05-08 01:52 -23.43647 -46.47846 2466 ft 145 kts 71°
2026-05-08 01:52 -23.43440 -46.47085 2459 ft 36 kts 75°
2026-05-08 01:52 -23.43319 -46.46868 2456 ft 33 kts 45°
2026-05-08 01:53 -23.43178 -46.46732 2459 ft 15 kts 32°
2026-05-08 01:53 -23.43084 -46.46717 2455 ft 13 kts 351°
2026-05-08 01:53 -23.42971 -46.46758 2456 ft 20 kts 340°
2026-05-08 01:53 -23.42841 -46.46798 2454 ft 18 kts 345°
2026-05-08 01:54 -23.42782 -46.46889 2459 ft 15 kts 259°
2026-05-08 01:54 -23.42808 -46.47002 2452 ft 15 kts 256°
2026-05-08 01:54 -23.42812 -46.47115 2455 ft 16 kts 314°
2026-05-08 01:54 -23.42713 -46.47173 2456 ft 16 kts 314°
2026-05-08 01:55 -23.42660 -46.47263 2457 ft 10 kts 243°
2026-05-08 01:55 -23.42676 -46.47303 2453 ft 0 kts 251°